Hourly Weather Liverpool

Today, 11 August, Tuesday

Time Temperature Precipitation Wind Pressure Humidity
00:00 +19°C° 1.5 mm 3 mps 761 mmHg 89%
01:00 +19°C° 1.4 mm 3 mps 761 mmHg 90%
02:00 +19°C° 1.4 mm 3 mps 760 mmHg 90%
03:00 +19°C° 1.4 mm 3 mps 760 mmHg 91%
04:00 +19°C° 0.6 mm 2 mps 760 mmHg 92%
05:00 +19°C° 0.6 mm 2 mps 760 mmHg 92%
06:00 +19°C° 0.6 mm 2 mps 760 mmHg 92%
07:00 +20°C° 0.2 mm 2 mps 760 mmHg 89%
08:00 +23°C° 0.2 mm 2 mps 760 mmHg 85%
09:00 +24°C° 0.2 mm 2 mps 760 mmHg 82%
10:00 +25°C° 0.1 mm 2 mps 760 mmHg 77%
11:00 +27°C° 0.1 mm 3 mps 760 mmHg 72%
12:00 +28°C° 0.1 mm 3 mps 760 mmHg 67%
13:00 +29°C° 0 mm 2 mps 760 mmHg 65%
14:00 +29°C° 0 mm 2 mps 760 mmHg 63%
15:00 +30°C° 0 mm 2 mps 759 mmHg 61%
16:00 +29°C° 0.8 mm 2 mps 759 mmHg 65%
17:00 +28°C° 0.8 mm 2 mps 759 mmHg 69%
18:00 +28°C° 0.8 mm 2 mps 759 mmHg 74%
19:00 +26°C° 1.2 mm 2 mps 759 mmHg 79%
20:00 +24°C° 1.2 mm 2 mps 759 mmHg 84%
21:00 +21°C° 1.2 mm 2 mps 759 mmHg 89%
22:00 +21°C° 0.6 mm 2 mps 759 mmHg 90%
23:00 +21°C° 0.6 mm 2 mps 759 mmHg 91%

Tomorrow, 12 August, Wednesday

Time Temperature Precipitation Wind Pressure Humidity
00:00 +22°C° 0.6 mm 1 mps 760 mmHg 91%
01:00 +21°C° 0.3 mm 1 mps 759 mmHg 92%
02:00 +21°C° 0.3 mm 1 mps 759 mmHg 92%
03:00 +21°C° 0.3 mm 1 mps 759 mmHg 92%
04:00 +21°C° 0.3 mm 1 mps 759 mmHg 92%
05:00 +21°C° 0.3 mm 1 mps 759 mmHg 93%
06:00 +21°C° 0.3 mm 1 mps 759 mmHg 93%
07:00 +22°C° 0.4 mm 1 mps 759 mmHg 91%
08:00 +22°C° 0.4 mm 1 mps 759 mmHg 88%
09:00 +23°C° 0.4 mm 1 mps 759 mmHg 86%
10:00 +24°C° 0 mm 1 mps 759 mmHg 82%
11:00 +25°C° 0 mm 1 mps 759 mmHg 78%
12:00 +26°C° 0 mm 1 mps 759 mmHg 75%
13:00 +26°C° 0.1 mm 2 mps 759 mmHg 74%
14:00 +26°C° 0.1 mm 2 mps 759 mmHg 74%
15:00 +26°C° 0.1 mm 3 mps 759 mmHg 74%
16:00 +25°C° 0.1 mm 3 mps 758 mmHg 77%
17:00 +24°C° 0.1 mm 3 mps 758 mmHg 80%
18:00 +24°C° 0.1 mm 3 mps 758 mmHg 83%
19:00 +22°C° 0.1 mm 3 mps 758 mmHg 86%
20:00 +21°C° 0.1 mm 3 mps 759 mmHg 89%
21:00 +20°C° 0.1 mm 2 mps 759 mmHg 91%
22:00 +20°C° 0.4 mm 2 mps 759 mmHg 92%
23:00 +20°C° 0.4 mm 2 mps 759 mmHg 92%

Day after tomorrow, 13 August, Thursday

Time Temperature Precipitation Wind Pressure Humidity
00:00 +20°C° 0.4 mm 2 mps 759 mmHg 92%
01:00 +20°C° 0.2 mm 2 mps 758 mmHg 93%
02:00 +20°C° 0.2 mm 2 mps 758 mmHg 93%
03:00 +20°C° 0.2 mm 2 mps 758 mmHg 93%
04:00 +20°C° 0.8 mm 2 mps 758 mmHg 93%
05:00 +20°C° 0.8 mm 2 mps 758 mmHg 94%
06:00 +20°C° 0.8 mm 2 mps 758 mmHg 94%
07:00 +20°C° 0.6 mm 2 mps 758 mmHg 93%
08:00 +20°C° 0.6 mm 2 mps 758 mmHg 92%
09:00 +21°C° 0.6 mm 2 mps 758 mmHg 91%
10:00 +21°C° 0.7 mm 2 mps 758 mmHg 89%
11:00 +22°C° 0.7 mm 3 mps 758 mmHg 87%
12:00 +22°C° 0.7 mm 3 mps 758 mmHg 85%
13:00 +24°C° 0.3 mm 3 mps 758 mmHg 82%
14:00 +25°C° 0.3 mm 3 mps 758 mmHg 79%
15:00 +25°C° 0.3 mm 4 mps 758 mmHg 77%
16:00 +25°C° 0.3 mm 4 mps 758 mmHg 78%
17:00 +23°C° 0.3 mm 4 mps 758 mmHg 80%
18:00 +23°C° 0.3 mm 4 mps 758 mmHg 81%
19:00 +22°C° 0.1 mm 4 mps 758 mmHg 83%
20:00 +21°C° 0.1 mm 4 mps 758 mmHg 84%
21:00 +20°C° 0.1 mm 4 mps 758 mmHg 86%
22:00 +20°C° 0.3 mm 3 mps 758 mmHg 86%
23:00 +19°C° 0.3 mm 3 mps 758 mmHg 87%

14 August, Friday

Time Temperature Precipitation Wind Pressure Humidity
00:00 +19°C° 0.3 mm 3 mps 758 mmHg 88%
01:00 +19°C° 0.2 mm 3 mps 758 mmHg 88%
02:00 +19°C° 0.2 mm 3 mps 758 mmHg 88%
03:00 +19°C° 0.2 mm 3 mps 758 mmHg 88%
04:00 +19°C° 0.4 mm 3 mps 758 mmHg 88%
05:00 +19°C° 0.4 mm 3 mps 758 mmHg 88%
06:00 +19°C° 0.4 mm 3 mps 758 mmHg 88%
07:00 +19°C° 0.2 mm 3 mps 758 mmHg 87%
08:00 +19°C° 0.2 mm 4 mps 758 mmHg 86%
09:00 +19°C° 0.2 mm 4 mps 758 mmHg 85%
10:00 +20°C° 0.1 mm 4 mps 758 mmHg 84%
11:00 +20°C° 0.1 mm 4 mps 758 mmHg 83%
12:00 +20°C° 0.1 mm 4 mps 758 mmHg 82%
13:00 +20°C° 0.1 mm 3 mps 758 mmHg 81%
14:00 +20°C° 0.1 mm 3 mps 758 mmHg 81%
15:00 +20°C° 0.1 mm 3 mps 758 mmHg 81%
16:00 +20°C° 0.1 mm 3 mps 758 mmHg 82%
17:00 +20°C° 0.1 mm 3 mps 758 mmHg 84%
18:00 +19°C° 0.1 mm 3 mps 758 mmHg 85%
19:00 +19°C° 0 mm 2 mps 758 mmHg 85%
20:00 +19°C° 0 mm 2 mps 758 mmHg 86%
21:00 +18°C° 0 mm 2 mps 758 mmHg 86%
22:00 +18°C° 0 mm 2 mps 758 mmHg 86%
23:00 +18°C° 0 mm 2 mps 758 mmHg 87%

15 August, Saturday

Time Temperature Precipitation Wind Pressure Humidity
00:00 +18°C° 0 mm 2 mps 758 mmHg 87%
01:00 +18°C° 0.2 mm 2 mps 758 mmHg 88%
02:00 +18°C° 0.2 mm 2 mps 758 mmHg 89%
03:00 +18°C° 0.2 mm 2 mps 758 mmHg 90%
04:00 +18°C° 0.4 mm 2 mps 758 mmHg 90%
05:00 +18°C° 0.4 mm 2 mps 758 mmHg 91%
06:00 +18°C° 0.4 mm 2 mps 757 mmHg 91%
07:00 +18°C° 0.4 mm 2 mps 758 mmHg 91%
08:00 +18°C° 0.4 mm 2 mps 758 mmHg 91%
09:00 +18°C° 0.4 mm 2 mps 758 mmHg 91%
10:00 +19°C° 0.2 mm 2 mps 758 mmHg 90%
11:00 +19°C° 0.2 mm 2 mps 758 mmHg 89%
12:00 +19°C° 0.2 mm 2 mps 758 mmHg 89%
13:00 +20°C° 0.3 mm 2 mps 758 mmHg 87%
14:00 +20°C° 0.3 mm 2 mps 757 mmHg 85%
15:00 +21°C° 0.3 mm 2 mps 757 mmHg 84%
16:00 +22°C° 0.5 mm 1 mps 757 mmHg 84%
17:00 +22°C° 0.5 mm 1 mps 757 mmHg 83%
18:00 +22°C° 0.5 mm 1 mps 757 mmHg 83%
19:00 +21°C° 0.3 mm 1 mps 758 mmHg 86%
20:00 +20°C° 0.3 mm 1 mps 758 mmHg 88%
21:00 +19°C° 0.3 mm 1 mps 758 mmHg 90%
22:00 +19°C° 0 mm 1 mps 758 mmHg 91%
23:00 +18°C° 0 mm 1 mps 758 mmHg 91%

16 August, Sunday

Time Temperature Precipitation Wind Pressure Humidity
00:00 +18°C° 0 mm 1 mps 758 mmHg 92%
01:00 +16°C° 0 mm 1 mps 758 mmHg 92%
02:00 +16°C° 0 mm 1 mps 758 mmHg 92%
03:00 +16°C° 0 mm 1 mps 758 mmHg 93%
04:00 +16°C° 0 mm 1 mps 758 mmHg 92%
05:00 +16°C° 0 mm 1 mps 758 mmHg 92%
06:00 +16°C° 0 mm 1 mps 758 mmHg 91%
07:00 +18°C° 0 mm 1 mps 759 mmHg 86%
08:00 +20°C° 0 mm 1 mps 759 mmHg 81%
09:00 +21°C° 0 mm 1 mps 759 mmHg 76%
10:00 +22°C° 0 mm 1 mps 759 mmHg 70%
11:00 +23°C° 0 mm 1 mps 758 mmHg 64%
12:00 +24°C° 0 mm 1 mps 758 mmHg 58%
13:00 +25°C° 0 mm 2 mps 758 mmHg 58%
14:00 +25°C° 0 mm 2 mps 758 mmHg 57%
15:00 +25°C° 0 mm 2 mps 757 mmHg 57%
16:00 +24°C° 0 mm 2 mps 757 mmHg 61%
17:00 +24°C° 0 mm 2 mps 757 mmHg 65%
18:00 +23°C° 0 mm 2 mps 756 mmHg 69%
19:00 +21°C° 0 mm 2 mps 756 mmHg 73%
20:00 +20°C° 0 mm 2 mps 756 mmHg 76%
21:00 +20°C° 0 mm 1 mps 756 mmHg 79%
22:00 +18°C° 0.5 mm 2 mps 756 mmHg 83%
23:00 +18°C° 0.5 mm 2 mps 756 mmHg 86%
Show more